Location: Caltech
(34.1382°N, 118.1253°W)
Time: 12:51:46
(UTC-07:00)

SO-67 - Visible Passes

Search period start: 19 October 2017 00:00
Search period end: 29 October 2017 00:00
Orbit: 400 x 403 km, 97.1° (Epoch: 19 October)

Date Brightness Start Highest point End Pass type
(mag) Time Alt. Az. Time Alt. Az. Time Alt. Az.
19 Oct ? 19:00:08 10° SSE 19:03:10 59° ENE 19:06:14 10° N visible
20 Oct ? 19:42:43 10° SSW 19:45:20 25° W 19:47:58 10° NW visible
21 Oct ? 18:52:45 10° SSE 18:55:41 43° ENE 18:58:40 10° N visible
22 Oct ? 19:34:58 10° SSW 19:37:47 33° W 19:40:38 10° NNW visible
23 Oct ? 18:45:23 10° SE 18:48:10 32° ENE 18:51:00 10° N visible
24 Oct ? 19:27:14 10° S 19:30:12 44° W 19:33:12 10° NNW visible
25 Oct ? 18:38:02 10° SE 18:40:37 24° ENE 18:43:13 10° NNE visible
26 Oct ? 19:19:31 10° S 19:22:34 61° W 19:25:40 10° NNW visible
27 Oct ? 18:30:44 10° ESE 18:33:01 19° ENE 18:35:18 10° NNE visible
27 Oct ? 20:03:12 10° SW 20:04:45 13° W 20:06:19 10° WNW visible
28 Oct ? 19:11:49 10° S 19:14:54 85° WSW 19:18:01 10° NNW visible
